Location: Peebles
(55.6412°N, 3.1714°W)
Time: 07:54:58
(UTC+00:00)

COSMOS 2251 DEB - Pass Details

Date: 01 December 2022
Orbit: 738 x 761 km, 74.0° (Epoch: 29 January)

Event Time Altitude Azimuth Distance (km) Brightness Sun altitude
Exits shadow 04:49:27 18° 2° (N) 1,758 ? -28.0°
Drops below altitude 10° 04:51:08 10° 16° (NNE) 2,260 ? -27.7°
Sets 04:53:48 0° 28° (NNE) 3,187 ? -27.3°
